WJA2562 CYYZ-MZBZ

Flight info

Callsign WJA2562
Flight time 4h 7m
Altitude 34000
Route BETES3 AIRRA DCT GEFFS DCT CMIKE/N0451F360 DCT CIGAR M219 SNAKR Y240 NAVVL L465 SHARQ UM463 WALKY DCT EMOSA UB764 BUKKY BUKKY1A
Aircraft B738/M-SDE2E3FGHIRWXY/LB1

Departure

Time 2026-05-04 12:39
Airport Toronto Pearson International Airport (CYYZ)

Arrival

Time 2026-05-04 16:47
Airport Philip S. W. Goldson International Airport (MZBZ)
Time Latitude Longitude Altitude Speed Heading
2026-05-04 12:00 43.68435 -79.62423 549 ft 0 kts 20°
2026-05-04 12:27 43.68424 -79.62429 549 ft 1 kts 20°
2026-05-04 12:28 43.68414 -79.62434 549 ft 2 kts 15°
2026-05-04 12:28 43.68399 -79.62437 549 ft 2 kts
2026-05-04 12:28 43.68386 -79.62437 549 ft 1 kts 353°
2026-05-04 12:28 43.68372 -79.62433 549 ft 2 kts 344°
2026-05-04 12:29 43.68359 -79.62427 549 ft 2 kts 334°
2026-05-04 12:29 43.68346 -79.62416 549 ft 2 kts 323°
2026-05-04 12:29 43.68338 -79.62407 549 ft 0 kts 316°
2026-05-04 12:29 43.68334 -79.62401 549 ft 0 kts 314°
2026-05-04 12:30 43.68331 -79.62397 549 ft 0 kts 314°
2026-05-04 12:30 43.68328 -79.62392 549 ft 0 kts 314°
2026-05-04 12:30 43.68325 -79.62387 549 ft 0 kts 314°
2026-05-04 12:30 43.68322 -79.62382 549 ft 0 kts 314°
2026-05-04 12:33 43.68333 -79.62399 549 ft 4 kts 314°
2026-05-04 12:33 43.68353 -79.62426 549 ft 5 kts 314°
2026-05-04 12:33 43.68376 -79.62457 549 ft 4 kts 316°
2026-05-04 12:34 43.68418 -79.62511 549 ft 12 kts 317°
2026-05-04 12:34 43.68473 -79.62581 549 ft 10 kts 316°
2026-05-04 12:34 43.68494 -79.62632 549 ft 0 kts 276°
2026-05-04 12:34 43.68495 -79.62634 549 ft 1 kts 275°
2026-05-04 12:35 43.68480 -79.62682 549 ft 8 kts 229°
2026-05-04 12:35 43.68483 -79.62756 549 ft 12 kts 309°
2026-05-04 12:35 43.68563 -79.62862 549 ft 18 kts 316°
2026-05-04 12:35 43.68658 -79.62987 552 ft 18 kts 316°
2026-05-04 12:36 43.68764 -79.63125 552 ft 24 kts 316°
2026-05-04 12:36 43.68883 -79.63284 552 ft 24 kts 313°
2026-05-04 12:36 43.68999 -79.63432 554 ft 21 kts 317°
2026-05-04 12:36 43.69096 -79.63538 556 ft 15 kts 359°
2026-05-04 12:37 43.69170 -79.63459 555 ft 13 kts 46°
2026-05-04 12:37 43.69263 -79.63419 554 ft 15 kts 358°
2026-05-04 12:37 43.69353 -79.63430 554 ft 11 kts 333°
2026-05-04 12:37 43.69405 -79.63494 554 ft 8 kts 287°
2026-05-04 12:38 43.69388 -79.63543 555 ft 0 kts 226°
2026-05-04 12:38 43.69327 -79.63635 555 ft 41 kts 227°
2026-05-04 12:39 43.69005 -79.64101 553 ft 99 kts 226°
2026-05-04 12:39 43.68429 -79.64939 549 ft 149 kts 226°
2026-05-04 12:39 43.67692 -79.66007 964 ft 160 kts 227°
2026-05-04 12:39 43.66925 -79.67127 1556 ft 167 kts 230°
2026-05-04 12:40 43.66251 -79.68478 2196 ft 169 kts 241°
2026-05-04 12:40 43.65695 -79.69782 2942 ft 158 kts 237°
2026-05-04 12:40 43.65009 -79.70953 3434 ft 162 kts 232°
2026-05-04 12:40 43.64257 -79.72193 3702 ft 178 kts 235°
2026-05-04 12:41 43.63477 -79.73613 3822 ft 204 kts 233°
2026-05-04 12:41 43.62348 -79.74869 4323 ft 218 kts 207°
2026-05-04 12:41 43.60888 -79.75108 5138 ft 223 kts 175°
2026-05-04 12:41 43.59458 -79.74593 5874 ft 220 kts 171°
2026-05-04 12:42 43.57888 -79.74004 6019 ft 246 kts 168°
2026-05-04 12:42 43.56275 -79.73191 6418 ft 260 kts 164°
2026-05-04 12:42 43.54565 -79.72344 6759 ft 273 kts 167°
2026-05-04 12:42 43.52736 -79.71603 7209 ft 282 kts 170°
2026-05-04 12:43 43.50845 -79.70928 7811 ft 285 kts 171°
2026-05-04 12:43 43.49063 -79.70316 8369 ft 289 kts 171°
2026-05-04 12:43 43.47057 -79.69630 8970 ft 293 kts 171°
2026-05-04 12:43 43.45069 -79.68944 9514 ft 299 kts 171°
2026-05-04 12:44 43.43070 -79.68295 10115 ft 300 kts 174°
2026-05-04 12:44 43.40998 -79.68132 10430 ft 305 kts 193°
2026-05-04 12:44 43.38959 -79.68941 10715 ft 312 kts 206°
2026-05-04 12:44 43.36909 -79.70121 10988 ft 326 kts 208°
2026-05-04 12:45 43.34793 -79.71371 11253 ft 341 kts 207°
2026-05-04 12:45 43.32563 -79.72646 11600 ft 353 kts 206°
2026-05-04 12:45 43.30288 -79.73900 12185 ft 357 kts 206°
2026-05-04 12:45 43.27970 -79.75150 12813 ft 361 kts 206°
2026-05-04 12:46 43.25633 -79.76359 13366 ft 367 kts 204°
2026-05-04 12:46 43.23206 -79.77380 13965 ft 373 kts 200°
2026-05-04 12:46 43.20694 -79.78261 14576 ft 378 kts 198°
2026-05-04 12:46 43.18226 -79.79057 15141 ft 382 kts 198°
2026-05-04 12:47 43.15670 -79.79868 15730 ft 385 kts 198°
2026-05-04 12:47 43.13047 -79.80713 16318 ft 389 kts 198°
2026-05-04 12:47 43.10418 -79.81576 16857 ft 392 kts 198°
2026-05-04 12:47 43.07718 -79.82474 17443 ft 395 kts 198°
2026-05-04 12:48 43.05061 -79.83365 17978 ft 399 kts 198°
2026-05-04 12:48 43.02338 -79.84283 18480 ft 403 kts 198°
2026-05-04 12:48 42.99628 -79.85196 19066 ft 406 kts 198°
2026-05-04 12:48 42.96850 -79.86134 19585 ft 410 kts 198°
2026-05-04 12:49 42.94072 -79.87071 20057 ft 415 kts 198°
2026-05-04 12:49 42.91295 -79.88006 20595 ft 417 kts 199°
2026-05-04 12:49 42.88446 -79.88965 21041 ft 422 kts 199°
2026-05-04 12:49 42.85593 -79.89924 21523 ft 426 kts 199°
2026-05-04 12:50 42.82711 -79.90886 21993 ft 429 kts 198°
2026-05-04 12:50 42.79752 -79.91773 22459 ft 434 kts 196°
2026-05-04 12:50 42.76789 -79.92554 22901 ft 438 kts 195°
2026-05-04 12:50 42.73764 -79.93301 23374 ft 441 kts 195°
2026-05-04 12:51 42.70731 -79.94036 23833 ft 443 kts 195°
2026-05-04 12:51 42.67690 -79.94775 24257 ft 447 kts 195°
2026-05-04 12:51 42.64612 -79.95528 24717 ft 449 kts 195°
2026-05-04 12:51 42.61492 -79.96300 25156 ft 452 kts 195°
2026-05-04 12:52 42.58409 -79.97070 25507 ft 456 kts 195°
2026-05-04 12:52 42.55277 -79.97857 25978 ft 457 kts 195°
2026-05-04 12:52 42.52116 -79.98653 26365 ft 460 kts 195°
2026-05-04 12:52 42.48967 -79.99447 26773 ft 463 kts 195°
2026-05-04 12:53 42.45785 -80.00250 27204 ft 464 kts 195°
2026-05-04 12:53 42.42624 -80.01048 27567 ft 467 kts 195°
2026-05-04 12:53 42.39445 -80.01850 27950 ft 469 kts 195°
2026-05-04 12:53 42.36200 -80.02669 28366 ft 470 kts 195°
2026-05-04 12:54 42.33027 -80.03466 28963 ft 467 kts 195°
2026-05-04 12:54 42.29814 -80.04273 29443 ft 466 kts 195°
2026-05-04 12:54 42.26646 -80.05005 29935 ft 466 kts 193°
2026-05-04 12:54 42.23406 -80.05473 30378 ft 468 kts 188°
2026-05-04 12:55 42.20157 -80.05692 30822 ft 469 kts 186°
2026-05-04 12:55 42.16906 -80.05771 31288 ft 468 kts 185°
2026-05-04 12:55 42.13638 -80.05784 31736 ft 467 kts 184°
2026-05-04 12:55 42.10415 -80.05772 32083 ft 467 kts 184°
2026-05-04 12:56 42.07163 -80.05755 32461 ft 467 kts 184°
2026-05-04 12:56 42.03939 -80.05745 32805 ft 467 kts 184°
2026-05-04 12:56 42.00695 -80.05743 33119 ft 467 kts 184°
2026-05-04 12:56 41.97465 -80.05750 33485 ft 466 kts 185°
2026-05-04 12:57 41.94235 -80.05761 33783 ft 466 kts 185°
2026-05-04 12:57 41.87732 -80.05801 33860 ft 469 kts 185°
2026-05-04 12:58 41.81233 -80.05844 33853 ft 467 kts 185°
2026-05-04 12:58 41.74718 -80.05891 33858 ft 468 kts 185°
2026-05-04 12:59 41.68222 -80.05939 33857 ft 468 kts 185°
2026-05-04 12:59 41.61713 -80.05988 33865 ft 469 kts 185°
2026-05-04 13:00 41.55168 -80.06036 33864 ft 467 kts 185°
2026-05-04 13:00 41.48705 -80.06084 33863 ft 469 kts 185°
2026-05-04 13:01 41.42171 -80.06134 33870 ft 470 kts 185°
2026-05-04 13:01 41.35642 -80.06181 33870 ft 470 kts 185°
2026-05-04 13:02 41.29096 -80.06229 33870 ft 470 kts 184°
2026-05-04 13:02 41.22548 -80.06276 33871 ft 471 kts 184°
2026-05-04 13:03 41.16003 -80.06323 33887 ft 469 kts 184°
2026-05-04 13:03 41.09554 -80.06839 33871 ft 464 kts 193°
2026-05-04 13:04 41.03270 -80.08662 33891 ft 463 kts 200°
2026-05-04 13:04 40.97097 -80.10999 33896 ft 459 kts 202°
2026-05-04 13:05 40.90994 -80.13374 33888 ft 460 kts 201°
2026-05-04 13:05 40.84882 -80.15710 33907 ft 459 kts 201°
2026-05-04 13:06 40.78737 -80.18012 33912 ft 458 kts 201°
2026-05-04 13:06 40.72649 -80.20261 33912 ft 458 kts 201°
2026-05-04 13:07 40.66479 -80.22525 33915 ft 458 kts 201°
2026-05-04 13:07 40.60400 -80.24747 33916 ft 457 kts 201°
2026-05-04 13:08 40.54282 -80.26977 33928 ft 456 kts 201°
2026-05-04 13:08 40.48188 -80.29194 33925 ft 455 kts 201°
2026-05-04 13:09 40.42090 -80.31409 33929 ft 454 kts 201°
2026-05-04 13:09 40.36008 -80.33614 33926 ft 454 kts 201°
2026-05-04 13:10 40.29953 -80.35804 33934 ft 455 kts 201°
2026-05-04 13:10 40.23839 -80.38011 33944 ft 453 kts 201°
2026-05-04 13:11 40.17779 -80.40193 33950 ft 452 kts 201°
2026-05-04 13:11 40.11756 -80.42360 33935 ft 451 kts 201°
2026-05-04 13:12 40.05701 -80.44535 33946 ft 450 kts 201°
2026-05-04 13:12 39.99674 -80.46697 33934 ft 451 kts 201°
2026-05-04 13:13 39.93677 -80.48844 33928 ft 448 kts 201°
2026-05-04 13:13 39.87652 -80.50996 33937 ft 449 kts 201°
2026-05-04 13:14 39.81620 -80.53148 33935 ft 450 kts 201°
2026-05-04 13:14 39.75611 -80.55284 33943 ft 448 kts 201°
2026-05-04 13:15 39.69554 -80.57436 33941 ft 449 kts 201°
2026-05-04 13:15 39.63580 -80.59551 33948 ft 448 kts 202°
2026-05-04 13:16 39.57555 -80.61683 33948 ft 448 kts 202°
2026-05-04 13:16 39.51523 -80.63814 33959 ft 449 kts 202°
2026-05-04 13:17 39.45512 -80.65932 33960 ft 449 kts 201°
2026-05-04 13:17 39.39510 -80.68045 33962 ft 447 kts 202°
2026-05-04 13:18 39.33485 -80.70161 33963 ft 449 kts 202°
2026-05-04 13:18 39.27482 -80.72267 33966 ft 449 kts 202°
2026-05-04 13:19 39.21453 -80.74377 33974 ft 449 kts 202°
2026-05-04 13:19 39.15424 -80.76485 33971 ft 448 kts 202°
2026-05-04 13:20 39.09415 -80.78580 33974 ft 448 kts 202°
2026-05-04 13:20 39.03411 -80.80672 33984 ft 447 kts 202°
2026-05-04 13:21 38.97433 -80.82711 33991 ft 449 kts 202°
2026-05-04 13:21 38.91396 -80.84660 33998 ft 448 kts 201°
2026-05-04 13:22 38.85314 -80.86596 33995 ft 449 kts 201°
2026-05-04 13:22 38.79261 -80.88530 34001 ft 449 kts 201°
2026-05-04 13:23 38.73176 -80.90481 34004 ft 449 kts 201°
2026-05-04 13:23 38.67130 -80.92419 33999 ft 451 kts 201°
2026-05-04 13:24 38.61046 -80.94369 33994 ft 452 kts 201°
2026-05-04 13:24 38.54937 -80.96319 33996 ft 451 kts 202°
2026-05-04 13:25 38.45822 -80.99225 34002 ft 451 kts 202°
2026-05-04 13:25 38.39732 -81.01161 34000 ft 449 kts 202°
2026-05-04 13:26 38.33633 -81.03103 34012 ft 453 kts 202°
2026-05-04 13:26 38.27579 -81.05022 34013 ft 450 kts 202°
2026-05-04 13:27 38.21447 -81.06967 34014 ft 452 kts 202°
2026-05-04 13:27 38.15367 -81.08889 34021 ft 450 kts 202°
2026-05-04 13:28 38.09295 -81.10806 34028 ft 454 kts 202°
2026-05-04 13:28 38.03681 -81.12575 34029 ft 451 kts 202°
2026-05-04 13:29 37.97311 -81.14580 34022 ft 453 kts 202°
2026-05-04 13:29 37.91194 -81.16505 34042 ft 454 kts 202°
2026-05-04 13:30 37.85097 -81.18415 34045 ft 450 kts 202°
2026-05-04 13:30 37.78989 -81.20329 34043 ft 454 kts 202°
2026-05-04 13:31 37.72893 -81.22233 34044 ft 452 kts 202°
2026-05-04 13:31 37.66827 -81.24126 34042 ft 452 kts 203°
2026-05-04 13:32 37.60747 -81.26016 34038 ft 451 kts 203°
2026-05-04 13:32 37.54632 -81.27915 34040 ft 450 kts 203°
2026-05-04 13:33 37.48584 -81.29791 34037 ft 448 kts 203°
2026-05-04 13:33 37.42556 -81.31657 34051 ft 448 kts 203°
2026-05-04 13:34 37.36472 -81.33543 34058 ft 450 kts 203°
2026-05-04 13:34 37.30394 -81.35419 34062 ft 448 kts 203°
2026-05-04 13:35 37.21363 -81.38202 34057 ft 447 kts 203°
2026-05-04 13:36 37.15342 -81.40055 34049 ft 445 kts 203°
2026-05-04 13:36 37.09382 -81.41882 34066 ft 443 kts 203°
2026-05-04 13:37 37.03376 -81.43729 34065 ft 445 kts 203°
2026-05-04 13:37 36.97400 -81.45551 34082 ft 442 kts 204°
2026-05-04 13:38 36.91416 -81.47384 34084 ft 443 kts 204°
2026-05-04 13:38 36.85461 -81.49201 34085 ft 443 kts 203°
2026-05-04 13:39 36.79509 -81.51015 34080 ft 443 kts 203°
2026-05-04 13:39 36.73532 -81.52833 34072 ft 442 kts 203°
2026-05-04 13:40 36.67545 -81.54649 34078 ft 443 kts 203°
2026-05-04 13:40 36.61593 -81.56451 34075 ft 441 kts 203°
2026-05-04 13:41 36.55618 -81.58263 34087 ft 442 kts 203°
2026-05-04 13:41 36.49685 -81.60053 34094 ft 442 kts 203°
2026-05-04 13:42 36.40737 -81.62752 34095 ft 442 kts 203°
2026-05-04 13:42 36.34788 -81.64540 34090 ft 440 kts 202°
2026-05-04 13:43 36.28844 -81.66329 34087 ft 442 kts 202°
2026-05-04 13:43 36.22878 -81.68118 34086 ft 440 kts 202°
2026-05-04 13:44 36.16965 -81.69888 34090 ft 440 kts 202°
2026-05-04 13:44 36.11161 -81.71624 34087 ft 439 kts 202°
2026-05-04 13:45 36.05230 -81.73398 34095 ft 440 kts 202°
2026-05-04 13:45 35.99291 -81.75165 34094 ft 438 kts 202°
2026-05-04 13:46 35.93354 -81.76934 34085 ft 439 kts 202°
2026-05-04 13:46 35.87470 -81.78680 34098 ft 438 kts 202°
2026-05-04 13:47 35.81556 -81.80437 34086 ft 438 kts 201°
2026-05-04 13:47 35.75606 -81.82201 34090 ft 439 kts 201°
2026-05-04 13:48 35.69680 -81.83955 34095 ft 438 kts 202°
2026-05-04 13:48 35.63762 -81.85702 34085 ft 438 kts 201°
2026-05-04 13:49 35.57856 -81.87443 34091 ft 436 kts 201°
2026-05-04 13:49 35.51954 -81.89181 34082 ft 437 kts 201°
2026-05-04 13:50 35.46033 -81.90923 34096 ft 437 kts 201°
2026-05-04 13:50 35.40143 -81.92654 34097 ft 437 kts 201°
2026-05-04 13:51 35.34197 -81.94396 34094 ft 438 kts 201°
2026-05-04 13:51 35.28283 -81.96125 34098 ft 435 kts 201°
2026-05-04 13:52 35.19455 -81.98707 34092 ft 436 kts 201°
2026-05-04 13:53 35.13591 -82.00417 34093 ft 433 kts 201°
2026-05-04 13:53 35.07693 -82.02132 34099 ft 434 kts 201°
2026-05-04 13:54 34.98890 -82.04693 34100 ft 435 kts 201°
2026-05-04 13:55 34.90064 -82.07250 34102 ft 433 kts 201°
2026-05-04 13:55 34.81292 -82.09789 34108 ft 433 kts 201°
2026-05-04 13:56 34.75433 -82.11481 34103 ft 432 kts 201°
2026-05-04 13:57 34.66664 -82.14011 34106 ft 432 kts 201°
2026-05-04 13:58 34.55107 -82.17333 34109 ft 432 kts 201°
2026-05-04 13:58 34.46498 -82.19802 34111 ft 432 kts 201°
2026-05-04 13:59 34.40702 -82.21461 34111 ft 431 kts 200°
2026-05-04 14:00 34.32005 -82.23950 34111 ft 433 kts 200°
2026-05-04 14:00 34.23318 -82.26427 34121 ft 432 kts 201°
2026-05-04 14:01 34.17540 -82.28072 34117 ft 431 kts 200°
2026-05-04 14:02 34.08850 -82.30539 34119 ft 430 kts 200°
2026-05-04 14:02 34.03088 -82.32175 34114 ft 431 kts 200°
2026-05-04 14:03 33.97261 -82.33826 34116 ft 430 kts 200°
2026-05-04 14:03 33.91486 -82.35460 34120 ft 430 kts 200°
2026-05-04 14:04 33.82858 -82.37895 34118 ft 430 kts 200°
2026-05-04 14:04 33.77092 -82.39520 34119 ft 429 kts 200°
2026-05-04 14:05 33.68476 -82.41946 34129 ft 429 kts 200°
2026-05-04 14:06 33.62707 -82.43568 34130 ft 428 kts 200°
2026-05-04 14:06 33.56964 -82.45179 34143 ft 428 kts 200°
2026-05-04 14:07 33.51240 -82.46782 34147 ft 427 kts 200°
2026-05-04 14:07 33.45887 -82.48280 34146 ft 427 kts 200°
2026-05-04 14:08 33.40099 -82.49897 34141 ft 426 kts 200°
2026-05-04 14:08 33.34362 -82.51499 34136 ft 427 kts 200°
2026-05-04 14:09 33.25658 -82.53925 34129 ft 427 kts 200°
2026-05-04 14:10 33.16989 -82.56333 34131 ft 425 kts 200°
2026-05-04 14:10 33.11213 -82.57937 34134 ft 426 kts 200°
2026-05-04 14:11 33.05476 -82.59527 34137 ft 424 kts 200°
2026-05-04 14:11 32.96844 -82.61916 34133 ft 426 kts 200°
2026-05-04 14:12 32.91102 -82.63503 34132 ft 424 kts 200°
2026-05-04 14:13 32.82504 -82.65875 34134 ft 424 kts 200°
2026-05-04 14:13 32.76749 -82.67459 34134 ft 425 kts 200°
2026-05-04 14:14 32.70968 -82.69049 34136 ft 426 kts 200°
2026-05-04 14:14 32.62309 -82.71426 34140 ft 427 kts 200°
2026-05-04 14:15 32.50747 -82.74590 34135 ft 427 kts 200°
2026-05-04 14:16 32.42056 -82.76965 34134 ft 427 kts 200°
2026-05-04 14:17 32.33392 -82.79310 34131 ft 428 kts 200°
2026-05-04 14:18 32.24710 -82.81650 34139 ft 428 kts 200°
2026-05-04 14:19 32.13102 -82.84766 34145 ft 429 kts 200°
2026-05-04 14:19 32.07231 -82.86341 34138 ft 431 kts 200°
2026-05-04 14:20 32.01408 -82.87900 34140 ft 428 kts 200°
2026-05-04 14:20 31.95590 -82.89497 34125 ft 428 kts 201°
2026-05-04 14:21 31.86932 -82.92094 34131 ft 432 kts 200°
2026-05-04 14:21 31.81037 -82.93606 34124 ft 431 kts 200°
2026-05-04 14:22 31.75320 -82.95525 34131 ft 426 kts 207°
2026-05-04 14:22 31.69811 -82.97986 34120 ft 423 kts 209°
2026-05-04 14:23 31.61641 -83.01765 34125 ft 422 kts 210°
2026-05-04 14:24 31.56173 -83.04252 34133 ft 422 kts 210°
2026-05-04 14:24 31.50664 -83.06735 34139 ft 423 kts 209°
2026-05-04 14:25 31.45222 -83.09165 34134 ft 420 kts 209°
2026-05-04 14:25 31.36985 -83.12846 34307 ft 431 kts 210°
2026-05-04 14:26 31.34191 -83.14091 34713 ft 428 kts 210°
2026-05-04 14:26 31.31393 -83.15331 35063 ft 427 kts 210°
2026-05-04 14:26 31.28629 -83.16556 35386 ft 427 kts 210°
2026-05-04 14:26 31.25857 -83.17786 35682 ft 426 kts 211°
2026-05-04 14:27 31.23091 -83.19013 36040 ft 424 kts 211°
2026-05-04 14:27 31.20309 -83.20247 36119 ft 426 kts 211°
2026-05-04 14:27 31.14777 -83.22699 36131 ft 424 kts 211°
2026-05-04 14:28 31.09273 -83.25133 36134 ft 425 kts 211°
2026-05-04 14:28 31.03734 -83.27585 36130 ft 424 kts 211°
2026-05-04 14:29 30.92656 -83.32475 36132 ft 426 kts 211°
2026-05-04 14:30 30.87077 -83.34933 36139 ft 427 kts 211°
2026-05-04 14:31 30.78796 -83.38568 36137 ft 425 kts 211°
2026-05-04 14:32 30.67682 -83.43443 36134 ft 424 kts 211°
2026-05-04 14:32 30.62155 -83.45863 36132 ft 426 kts 211°
2026-05-04 14:33 30.56625 -83.48286 36130 ft 427 kts 211°
2026-05-04 14:33 30.51057 -83.50719 36125 ft 427 kts 211°
2026-05-04 14:34 30.45478 -83.53149 36124 ft 426 kts 211°
2026-05-04 14:34 30.39944 -83.55561 36123 ft 427 kts 211°
2026-05-04 14:35 30.34371 -83.57989 36125 ft 427 kts 211°
2026-05-04 14:35 30.28822 -83.60398 36122 ft 427 kts 211°
2026-05-04 14:36 30.23242 -83.62824 36123 ft 428 kts 211°
2026-05-04 14:36 30.17664 -83.65243 36124 ft 428 kts 210°
2026-05-04 14:37 30.12092 -83.67657 36121 ft 429 kts 210°
2026-05-04 14:37 30.06488 -83.70079 36122 ft 428 kts 210°
2026-05-04 14:38 30.00924 -83.72482 36117 ft 428 kts 210°
2026-05-04 14:38 29.95351 -83.74887 36117 ft 428 kts 210°
2026-05-04 14:39 29.89787 -83.77284 36116 ft 428 kts 210°
2026-05-04 14:39 29.84177 -83.79698 36107 ft 429 kts 210°
2026-05-04 14:40 29.75845 -83.83279 36109 ft 428 kts 210°
2026-05-04 14:40 29.70250 -83.85683 36108 ft 429 kts 210°
2026-05-04 14:41 29.64672 -83.88075 36111 ft 429 kts 210°
2026-05-04 14:42 29.53495 -83.92854 36107 ft 428 kts 210°
2026-05-04 14:42 29.47907 -83.95245 36109 ft 428 kts 210°
2026-05-04 14:43 29.42343 -83.97619 36108 ft 427 kts 210°
2026-05-04 14:43 29.36784 -83.99985 36109 ft 428 kts 210°
2026-05-04 14:44 29.31145 -84.02389 36109 ft 429 kts 210°
2026-05-04 14:44 29.25592 -84.04745 36107 ft 426 kts 210°
2026-05-04 14:45 29.20003 -84.07121 36113 ft 428 kts 210°
2026-05-04 14:45 29.14463 -84.09470 36108 ft 427 kts 210°
2026-05-04 14:46 29.08889 -84.11831 36110 ft 427 kts 210°
2026-05-04 14:46 29.03299 -84.14197 36108 ft 426 kts 211°
2026-05-04 14:47 28.97741 -84.16547 36109 ft 428 kts 210°
2026-05-04 14:47 28.92178 -84.18896 36108 ft 426 kts 210°
2026-05-04 14:48 28.86612 -84.21242 36106 ft 425 kts 210°
2026-05-04 14:48 28.81107 -84.23560 36106 ft 426 kts 210°
2026-05-04 14:49 28.75514 -84.25919 36107 ft 428 kts 210°
2026-05-04 14:49 28.69935 -84.28261 36105 ft 427 kts 210°
2026-05-04 14:50 28.64331 -84.30615 36106 ft 427 kts 210°
2026-05-04 14:50 28.58764 -84.32948 36103 ft 427 kts 210°
2026-05-04 14:51 28.53178 -84.35288 36102 ft 426 kts 210°
2026-05-04 14:51 28.47581 -84.37631 36100 ft 429 kts 210°
2026-05-04 14:52 28.41999 -84.39961 36101 ft 426 kts 210°
2026-05-04 14:52 28.36398 -84.42300 36100 ft 427 kts 210°
2026-05-04 14:53 28.30827 -84.44623 36098 ft 426 kts 210°
2026-05-04 14:53 28.25230 -84.46953 36097 ft 427 kts 210°
2026-05-04 14:54 28.19636 -84.49282 36093 ft 428 kts 210°
2026-05-04 14:54 28.14071 -84.51594 36095 ft 428 kts 210°
2026-05-04 14:55 28.08450 -84.53925 36095 ft 426 kts 210°
2026-05-04 14:55 28.02885 -84.56234 36094 ft 428 kts 210°
2026-05-04 14:56 27.97297 -84.58549 36090 ft 427 kts 210°
2026-05-04 14:56 27.91746 -84.60845 36088 ft 426 kts 210°
2026-05-04 14:57 27.86148 -84.63159 36085 ft 425 kts 210°
2026-05-04 14:57 27.80588 -84.65455 36084 ft 428 kts 209°
2026-05-04 14:58 27.74988 -84.67767 36084 ft 426 kts 209°
2026-05-04 14:58 27.69412 -84.70060 36082 ft 427 kts 209°
2026-05-04 14:59 27.63812 -84.72362 36082 ft 427 kts 209°
2026-05-04 15:00 27.55436 -84.75804 36081 ft 426 kts 209°
2026-05-04 15:00 27.49843 -84.78102 36076 ft 428 kts 209°
2026-05-04 15:01 27.41478 -84.81548 36079 ft 426 kts 209°
2026-05-04 15:01 27.35924 -84.83843 36078 ft 427 kts 209°
2026-05-04 15:02 27.30316 -84.86154 36076 ft 426 kts 209°
2026-05-04 15:02 27.24755 -84.88444 36081 ft 428 kts 209°
2026-05-04 15:03 27.19163 -84.90743 36091 ft 425 kts 209°
2026-05-04 15:03 27.13623 -84.93016 36091 ft 427 kts 209°
2026-05-04 15:04 27.08040 -84.95312 36087 ft 427 kts 209°
2026-05-04 15:04 27.02421 -84.97613 36092 ft 425 kts 209°
2026-05-04 15:05 26.96884 -84.99878 36089 ft 426 kts 209°
2026-05-04 15:05 26.91295 -85.02167 36087 ft 428 kts 209°
2026-05-04 15:06 26.85721 -85.04444 36086 ft 426 kts 209°
2026-05-04 15:07 26.77445 -85.07822 36084 ft 427 kts 209°
2026-05-04 15:07 26.71969 -85.10053 36083 ft 428 kts 209°
2026-05-04 15:08 26.66497 -85.12281 36084 ft 429 kts 209°
2026-05-04 15:08 26.60927 -85.14546 36086 ft 428 kts 209°
2026-05-04 15:09 26.55308 -85.16830 36081 ft 428 kts 209°
2026-05-04 15:09 26.49733 -85.19091 36081 ft 426 kts 209°
2026-05-04 15:10 26.41321 -85.22474 36076 ft 429 kts 207°
2026-05-04 15:10 26.35489 -85.24120 36078 ft 440 kts 198°
2026-05-04 15:11 26.32410 -85.24572 36077 ft 443 kts 195°
2026-05-04 15:11 26.26250 -85.25187 36076 ft 447 kts 193°
2026-05-04 15:12 26.20079 -85.25731 36072 ft 443 kts 193°
2026-05-04 15:12 26.13923 -85.26313 36072 ft 446 kts 193°
2026-05-04 15:13 26.07735 -85.26932 36072 ft 447 kts 193°
2026-05-04 15:13 26.01536 -85.27563 36066 ft 444 kts 194°
2026-05-04 15:14 25.95361 -85.28199 36070 ft 446 kts 194°
2026-05-04 15:14 25.89208 -85.28833 36066 ft 445 kts 194°
2026-05-04 15:15 25.83035 -85.29469 36067 ft 445 kts 194°
2026-05-04 15:15 25.76856 -85.30105 36069 ft 445 kts 194°
2026-05-04 15:16 25.67599 -85.31059 36060 ft 444 kts 194°
2026-05-04 15:17 25.58392 -85.32004 36056 ft 443 kts 194°
2026-05-04 15:17 25.49161 -85.32951 36058 ft 442 kts 194°
2026-05-04 15:18 25.42998 -85.33584 36054 ft 443 kts 194°
2026-05-04 15:19 25.33931 -85.35065 36043 ft 427 kts 207°
2026-05-04 15:19 25.26122 -85.39292 36043 ft 415 kts 218°
2026-05-04 15:20 25.21125 -85.42543 36043 ft 416 kts 219°
2026-05-04 15:20 25.16144 -85.45769 36043 ft 414 kts 219°
2026-05-04 15:21 25.11039 -85.48833 36042 ft 423 kts 212°
2026-05-04 15:21 25.05146 -85.50181 36042 ft 447 kts 192°
2026-05-04 15:22 25.01988 -85.50275 36038 ft 450 kts 189°
2026-05-04 15:22 24.92603 -85.50135 36034 ft 449 kts 188°
2026-05-04 15:23 24.86357 -85.50045 36037 ft 449 kts 188°
2026-05-04 15:23 24.80122 -85.50005 36040 ft 449 kts 188°
2026-05-04 15:24 24.67582 -85.49985 36039 ft 447 kts 189°
2026-05-04 15:25 24.61327 -85.49992 36036 ft 448 kts 189°
2026-05-04 15:26 24.52001 -85.49993 36035 ft 447 kts 189°
2026-05-04 15:26 24.42684 -85.49994 36033 ft 445 kts 189°
2026-05-04 15:27 24.33344 -85.50000 36032 ft 447 kts 188°
2026-05-04 15:28 24.24016 -85.49998 36037 ft 444 kts 188°
2026-05-04 15:29 24.14778 -85.49998 36027 ft 444 kts 189°
2026-05-04 15:30 23.93072 -85.50214 36026 ft 440 kts 191°
2026-05-04 15:31 23.83891 -85.50722 36026 ft 440 kts 192°
2026-05-04 15:32 23.68552 -85.51516 36026 ft 440 kts 191°
2026-05-04 15:34 23.53252 -85.52254 36025 ft 440 kts 191°
2026-05-04 15:34 23.44062 -85.52701 36030 ft 439 kts 191°
2026-05-04 15:35 23.34956 -85.53135 36028 ft 436 kts 191°
2026-05-04 15:36 23.25839 -85.53577 36027 ft 438 kts 191°
2026-05-04 15:36 23.19751 -85.53871 36027 ft 439 kts 191°
2026-05-04 15:37 23.13677 -85.54157 36028 ft 437 kts 191°
2026-05-04 15:37 23.07576 -85.54450 36028 ft 437 kts 191°
2026-05-04 15:38 23.01502 -85.54742 36027 ft 437 kts 191°
2026-05-04 15:38 22.95462 -85.55026 36026 ft 433 kts 191°
2026-05-04 15:39 22.89434 -85.55311 36026 ft 434 kts 191°
2026-05-04 15:40 22.80313 -85.55749 36025 ft 435 kts 191°
2026-05-04 15:40 22.74223 -85.56040 36024 ft 436 kts 191°
2026-05-04 15:41 22.68165 -85.56330 36022 ft 434 kts 191°
2026-05-04 15:41 22.62128 -85.56620 36021 ft 438 kts 191°
2026-05-04 15:42 22.56047 -85.56913 36019 ft 437 kts 191°
2026-05-04 15:42 22.49952 -85.57202 36018 ft 437 kts 191°
2026-05-04 15:43 22.43873 -85.57501 36017 ft 439 kts 191°
2026-05-04 15:43 22.37763 -85.57792 36017 ft 435 kts 191°
2026-05-04 15:44 22.31719 -85.58083 36020 ft 437 kts 191°
2026-05-04 15:44 22.25652 -85.58757 36021 ft 427 kts 201°
2026-05-04 15:44 22.22901 -85.59775 36026 ft 413 kts 212°
2026-05-04 15:45 22.20432 -85.61272 36029 ft 406 kts 220°
2026-05-04 15:45 22.15767 -85.64766 36027 ft 406 kts 223°
2026-05-04 15:46 22.11217 -85.68356 36027 ft 407 kts 223°
2026-05-04 15:46 22.06665 -85.71928 36029 ft 402 kts 222°
2026-05-04 15:47 22.02105 -85.75476 36029 ft 406 kts 222°
2026-05-04 15:47 21.97524 -85.79022 36027 ft 409 kts 222°
2026-05-04 15:48 21.92930 -85.82566 36025 ft 405 kts 222°
2026-05-04 15:48 21.86004 -85.87899 36018 ft 407 kts 222°
2026-05-04 15:49 21.81411 -85.91432 36010 ft 408 kts 221°
2026-05-04 15:49 21.76806 -85.94985 36006 ft 405 kts 222°
2026-05-04 15:50 21.72227 -85.98521 36007 ft 408 kts 222°
2026-05-04 15:50 21.67588 -86.02103 36003 ft 407 kts 222°
2026-05-04 15:51 21.63003 -86.05629 35998 ft 406 kts 222°
2026-05-04 15:51 21.58411 -86.09161 36000 ft 407 kts 222°
2026-05-04 15:52 21.53798 -86.12708 36007 ft 408 kts 222°
2026-05-04 15:52 21.49181 -86.16253 36004 ft 408 kts 222°
2026-05-04 15:53 21.44557 -86.19800 36002 ft 406 kts 222°
2026-05-04 15:53 21.39946 -86.23332 36006 ft 407 kts 221°
2026-05-04 15:54 21.35346 -86.26856 36003 ft 406 kts 221°
2026-05-04 15:54 21.30731 -86.30391 36003 ft 408 kts 221°
2026-05-04 15:55 21.26087 -86.33943 36002 ft 408 kts 221°
2026-05-04 15:55 21.21471 -86.37470 36001 ft 407 kts 221°
2026-05-04 15:56 21.16847 -86.41001 36000 ft 409 kts 221°
2026-05-04 15:56 21.12248 -86.44507 36000 ft 407 kts 221°
2026-05-04 15:57 21.07614 -86.48040 35997 ft 410 kts 221°
2026-05-04 15:57 21.02968 -86.51580 36000 ft 409 kts 221°
2026-05-04 15:58 20.98322 -86.55114 35997 ft 409 kts 221°
2026-05-04 15:58 20.93708 -86.58623 35998 ft 408 kts 221°
2026-05-04 15:59 20.89069 -86.62147 35997 ft 410 kts 221°
2026-05-04 15:59 20.84389 -86.65705 35998 ft 411 kts 221°
2026-05-04 16:00 20.79737 -86.69235 35998 ft 409 kts 221°
2026-05-04 16:00 20.75084 -86.72762 36002 ft 411 kts 221°
2026-05-04 16:01 20.70425 -86.76287 36001 ft 409 kts 221°
2026-05-04 16:01 20.65777 -86.79808 36002 ft 412 kts 221°
2026-05-04 16:02 20.61097 -86.83350 36004 ft 411 kts 221°
2026-05-04 16:03 20.54095 -86.88643 36006 ft 412 kts 220°
2026-05-04 16:03 20.49207 -86.91942 36010 ft 417 kts 214°
2026-05-04 16:04 20.43973 -86.94603 36007 ft 419 kts 210°
2026-05-04 16:04 20.35937 -86.98375 36010 ft 420 kts 210°
2026-05-04 16:05 20.30584 -87.00906 36009 ft 421 kts 210°
2026-05-04 16:06 20.22589 -87.04725 36005 ft 421 kts 210°
2026-05-04 16:07 20.11864 -87.09866 36000 ft 420 kts 210°
2026-05-04 16:08 20.01192 -87.14974 36003 ft 421 kts 210°
2026-05-04 16:09 19.87745 -87.21406 36001 ft 423 kts 210°
2026-05-04 16:10 19.77311 -87.26386 35998 ft 420 kts 210°
2026-05-04 16:11 19.66620 -87.31486 36000 ft 421 kts 210°
2026-05-04 16:12 19.50610 -87.39105 36001 ft 424 kts 210°
2026-05-04 16:13 19.39847 -87.44218 35997 ft 423 kts 209°
2026-05-04 16:14 19.29076 -87.49326 35995 ft 424 kts 209°
2026-05-04 16:16 19.15573 -87.55717 35997 ft 425 kts 209°
2026-05-04 16:16 19.07500 -87.59536 35421 ft 417 kts 209°
2026-05-04 16:17 19.02218 -87.62027 34309 ft 415 kts 208°
2026-05-04 16:18 18.94488 -87.65679 32904 ft 422 kts 208°
2026-05-04 16:18 18.91694 -87.66994 32405 ft 418 kts 208°
2026-05-04 16:19 18.84006 -87.70613 30943 ft 411 kts 207°
2026-05-04 16:19 18.78784 -87.73071 29932 ft 406 kts 207°
2026-05-04 16:20 18.71080 -87.76698 28434 ft 409 kts 206°
2026-05-04 16:20 18.65858 -87.79154 27407 ft 408 kts 206°
2026-05-04 16:21 18.58141 -87.82779 25889 ft 402 kts 206°
2026-05-04 16:22 18.53141 -87.85126 24897 ft 398 kts 206°
2026-05-04 16:22 18.45572 -87.88675 23392 ft 393 kts 206°
2026-05-04 16:23 18.38209 -87.92123 21925 ft 388 kts 205°
2026-05-04 16:24 18.28470 -87.96680 19975 ft 382 kts 205°
2026-05-04 16:25 18.23606 -87.98956 18987 ft 380 kts 205°
2026-05-04 16:26 18.14046 -88.03430 17038 ft 373 kts 204°
2026-05-04 16:26 18.07002 -88.06719 15594 ft 369 kts 204°
2026-05-04 16:27 18.02400 -88.08865 14646 ft 365 kts 204°
2026-05-04 16:28 17.95534 -88.12065 13244 ft 360 kts 204°
2026-05-04 16:28 17.88766 -88.15218 11834 ft 355 kts 203°
2026-05-04 16:29 17.79943 -88.19323 10037 ft 343 kts 203°
2026-05-04 16:30 17.73731 -88.22221 9119 ft 325 kts 204°
2026-05-04 16:31 17.70210 -88.25075 8266 ft 323 kts 237°
2026-05-04 16:31 17.67511 -88.31322 7087 ft 315 kts 247°
2026-05-04 16:32 17.64907 -88.37393 5939 ft 294 kts 245°
2026-05-04 16:33 17.63208 -88.41167 5217 ft 281 kts 245°
2026-05-04 16:33 17.61625 -88.44682 4927 ft 254 kts 245°
2026-05-04 16:34 17.60204 -88.47842 4570 ft 236 kts 245°
2026-05-04 16:34 17.59504 -88.49397 4260 ft 235 kts 245°
2026-05-04 16:35 17.57405 -88.54010 3187 ft 234 kts 247°
2026-05-04 16:35 17.58233 -88.58394 3170 ft 224 kts 325°
2026-05-04 16:36 17.59457 -88.59338 3173 ft 211 kts 324°
2026-05-04 16:36 17.61631 -88.61198 3177 ft 202 kts 323°
2026-05-04 16:37 17.63796 -88.63015 3173 ft 202 kts 324°
2026-05-04 16:37 17.64972 -88.63784 3170 ft 200 kts 342°
2026-05-04 16:37 17.67280 -88.62976 3176 ft 177 kts 61°
2026-05-04 16:38 17.68097 -88.60319 3196 ft 205 kts 73°
2026-05-04 16:39 17.66492 -88.56719 3199 ft 215 kts 160°
2026-05-04 16:39 17.63605 -88.55963 3192 ft 215 kts 163°
2026-05-04 16:40 17.60732 -88.55115 3191 ft 215 kts 162°
2026-05-04 16:40 17.57834 -88.54281 3005 ft 213 kts 162°
2026-05-04 16:41 17.54880 -88.54017 2969 ft 217 kts 174°
2026-05-04 16:41 17.50868 -88.52113 2644 ft 209 kts 136°
2026-05-04 16:42 17.50058 -88.48296 2115 ft 166 kts 76°
2026-05-04 16:43 17.50567 -88.46092 2032 ft 158 kts 76°
2026-05-04 16:43 17.51059 -88.43891 1951 ft 158 kts 76°
2026-05-04 16:43 17.51314 -88.42743 1836 ft 159 kts 76°
2026-05-04 16:44 17.52276 -88.38373 1250 ft 154 kts 76°
2026-05-04 16:45 17.52770 -88.36212 842 ft 154 kts 76°
2026-05-04 16:46 17.53427 -88.33023 304 ft 151 kts 77°
2026-05-04 16:46 17.53877 -88.30998 25 ft 121 kts 78°
2026-05-04 16:47 17.54061 -88.30138 24 ft 36 kts 78°
2026-05-04 16:47 17.54128 -88.29861 25 ft 10 kts 313°
2026-05-04 16:48 17.54073 -88.30076 24 ft 17 kts 257°
2026-05-04 16:48 17.54037 -88.30246 23 ft 25 kts 257°
2026-05-04 16:49 17.53958 -88.30601 22 ft 26 kts 256°
2026-05-04 16:49 17.53871 -88.30874 25 ft 9 kts 189°
2026-05-04 16:50 17.53756 -88.30846 25 ft 6 kts 134°
2026-05-04 16:50 17.53739 -88.30773 25 ft 4 kts 166°
2026-05-04 16:51 17.53700 -88.30763 25 ft 0 kts 166°